Flag for Germany Weather for the Past 2 Weeks in Fürstenwalde/Spree, Brandenburg, Germany

Now
39 °F

Fog.


Feels Like: 36 °F
Forecast: 36 / 42 °F
Wind: 5 mph from East

Location: Berlin-Schoenefeld

Current Time: Feb 14, 2016 at 8:05:23 PM

Latest Report: Feb 14, 2016 at 7:20 PM


Visibility: 1 mi

Pressure: 29.33 "Hg

Humidity: 100%

Dew point: 39 °F

Location of Fürstenwalde/SpreeLocation

Historic Weather in Fürstenwalde/Spree — Graph

°F

Fürstenwalde/Spree Temperature Yesterday

Maximum temperature yesterday: 43 °F (at 12:50 PM)
Minimum temperature yesterday: 27 °F (at 12:20 AM)
Average temperature yesterday: 34 °F

High & Low Weather Summary for the Past Weeks

 TemperatureHumidityPressure
High54 °F (Feb 2, 12:50 PM)100% (Feb 1, 8:50 AM)30.24 "Hg (Feb 1, 8:50 AM)
Low27 °F (Feb 13, 12:20 AM)47% (Feb 2, 1:20 PM)28.97 "Hg (Feb 9, 9:20 PM)
Average41 °F81%29.65 "Hg
* Reported Jan 30 6:20 PM — Feb 14 6:50 PM, Fürstenwalde/Spree, Weather by CustomWeather, © 2016

Note: Actual official high and low records may vary slightly from our data, if they occured in-between our weather recording intervals... More about our weather records

Advertising

Fürstenwalde/Spree Weather History for the Previous 24 Hours

 ConditionsComfort  
Time TempWeatherWind HumidityBarometerVisibility
6:50 PM
Sun, Feb 14
39 °FFog.3 mph100%29.30 "Hg1 mi
6:20 PM39 °FFog.6 mph93%29.30 "Hg1 mi
5:50 PM39 °FFog.2 mph93%29.30 "Hg1 mi
5:20 PM39 °FFog.7 mph93%29.27 "Hg1 mi
4:50 PM39 °FFog.6 mph93%29.27 "Hg1 mi
4:20 PM39 °FFog.7 mph93%29.27 "Hg1 mi
3:50 PM39 °FDrizzle. Fog.6 mph93%29.24 "Hg1 mi
3:20 PM39 °FDrizzle. Fog.8 mph93%29.24 "Hg1 mi
2:50 PM39 °FDrizzle. Fog.7 mph93%29.21 "Hg2 mi
2:20 PM39 °FDrizzle. Fog.8 mph93%29.21 "Hg2 mi
1:50 PM39 °FFog.7 mph93%29.21 "Hg3 mi
1:20 PM39 °FFog.8 mph93%29.21 "Hg3 mi
12:50 PM37 °FLight rain. Fog.12 mph93%29.21 "Hg2 mi
12:20 PM37 °FLight rain. Fog.8 mph93%29.21 "Hg2 mi
11:50 AM37 °FLight rain. Fog.10 mph93%29.21 "Hg2 mi
11:20 AM37 °FLight rain. Fog.10 mph93%29.18 "Hg2 mi
10:50 AM37 °FDrizzle. Fog.13 mph93%29.18 "Hg2 mi
10:20 AM36 °FLight rain. Fog.13 mph100%29.18 "Hg2 mi
9:50 AM36 °FLight rain. Fog.12 mph93%29.18 "Hg2 mi
9:20 AM36 °FDrizzle. Fog.15 mph93%29.18 "Hg2 mi
8:50 AM36 °FDrizzle. Fog.14 mph93%29.18 "Hg2 mi
8:20 AM36 °FDrizzle. Fog.14 mph93%29.18 "Hg2 mi
7:50 AM36 °FLight rain. Fog.13 mph93%29.18 "Hg2 mi
7:20 AM36 °FLight rain. Fog.13 mph93%29.18 "Hg2 mi
6:50 AM36 °FDrizzle. Fog.13 mph93%29.18 "Hg2 mi
6:20 AM36 °FLight rain. Fog.12 mph93%29.18 "Hg3 mi
5:50 AM36 °FDrizzle. Fog.13 mph93%29.18 "Hg3 mi
5:20 AM36 °FPassing clouds.13 mph93%29.18 "Hg4 mi
4:50 AM36 °FPassing clouds.13 mph93%29.21 "Hg5 mi
4:20 AM36 °FPassing clouds.13 mph87%29.21 "Hg5 mi
3:50 AM36 °FPassing clouds.10 mph87%29.21 "Hg6 mi
3:20 AM34 °FPassing clouds.12 mph93%29.21 "Hg6 mi
2:20 AM34 °FPassing clouds.12 mph93%29.24 "Hg6 mi
1:50 AM34 °FLight rain. Passing clouds.9 mph93%29.24 "Hg4 mi
1:20 AM34 °FPassing clouds.10 mph93%29.24 "Hg4 mi
12:50 AM34 °FFog.12 mph93%29.24 "Hg3 mi
12:20 AM34 °FFog.9 mph93%29.27 "Hg3 mi
11:50 PM
Sat, Feb 13
34 °FFog.9 mph93%29.30 "Hg3 mi
11:20 PM34 °FFog.7 mph93%29.30 "Hg3 mi
10:50 PM34 °FFog.10 mph93%29.30 "Hg3 mi
9:50 PM34 °FFog.12 mph93%29.30 "Hg3 mi
9:20 PM34 °FFog.8 mph93%29.30 "Hg3 mi
8:50 PM34 °FFog.10 mph93%29.30 "Hg3 mi
8:20 PM34 °FFog.12 mph93%29.30 "Hg3 mi
Weather by CustomWeather, © 2016

See weather overviewHow to use our weather pages